Location: Breitenfeld
(46.8500°N, 15.6333°E)
Time: 05:36:51
(UTC+00:00)

Meteor 1-16 Rocket - Pass Details

Date: 09 April 2020
Orbit: 790 x 907 km, 81.2° (Epoch: 29 May)

Event Time Altitude Azimuth Distance (km) Brightness Sun altitude
Rises 18:30:32 0° 195° (SSW) 3,311 7.2 -9.4°
Reaches altitude 10° 18:32:53 10° 197° (SSW) 2,398 6.5 -9.7°
Maximum altitude 18:38:18 74° 282° (WNW) 869 4.5 -10.6°
Drops below altitude 10° 18:43:56 10° 8° (N) 2,491 6.9 -11.5°
Sets 18:46:26 0° 10° (N) 3,450 7.6 -11.8°
